Highgate, VT

10:32 PM EDT on May 27, 2018 (GMT -0400)
Franklin County State

Weather History for KFSO - January, 2013

Change the Weather History Date:

Thursday, January 17, 2013

  Actual Average (KPBG) Record (KPBG)
Temperature  
Mean Temperature 18 °F -  
Max Temperature 32 °F 24 °F 49 °F (1973)
Min Temperature 2 °F 2 °F -18 °F (2009)
Degree Days  
Heating Degree Days 48    
Moisture  
Dew Point 6 °F    
Average Humidity 62    
Maximum Humidity 86    
Minimum Humidity 40    
Precipitation  
Precipitation 0.00 in - - ()
Sea Level Pressure  
Sea Level Pressure 30.02 in    
Wind  
Wind Speed 7 mph (WNW)    
Max Wind Speed 14 mph    
Max Gust Speed 29 mph    
Visibility 10 miles    
Events Snow    
Averages and records for this station are not official NWS values.
T = Trace of Precipitation, MM = Missing Value Source: NWS Daily Summary

Daily Weather History Graph

Daily Weather History Graph

Search for Another Location

Airport or City:

Astronomy

Jan. 17, 2013 Rise Set
Actual Time 7:25 AM EST 4:40 PM EST
Civil Twilight 6:52 AM EST 5:12 PM EST
Nautical Twilight 6:16 AM EST 5:48 PM EST
Astronomical Twilight 5:41 AM EST 6:23 PM EST
Moon 10:11 AM EST (1/17) 11:49 PM EST (1/17)
Length of Visible Light 10h 19m
Length of Day
9h 14m
Waxing Crescent, 37% of the Moon is Illuminated
Jan 17
Waxing Crescent
Jan 18
First Quarter
Jan 26
Full
Feb 3
Last Quarter
Feb 10
New

Hourly Weather History & Observations

Time (EST) Temp. Windchill Dew Point Humidity Pressure Visibility Wind Dir Wind Speed Gust Speed Precip Events Conditions
12:15 AM 29.7 °F 22.8 °F 26.1 °F 86% 29.74 in 10.0 mi South 6.9 mph - N/A   Overcast
12:35 AM 30.0 °F 22.4 °F 26.2 °F 86% 29.73 in 10.0 mi South 8.1 mph - N/A   Overcast
12:55 AM 31.5 °F 24.9 °F 27.3 °F 85% 29.74 in 10.0 mi South 6.9 mph - N/A   Overcast
1:15 AM 32.0 °F 27.5 °F 27.1 °F 82% 29.73 in 10.0 mi SSW 4.6 mph - N/A   Overcast
1:35 AM 32.0 °F 24.8 °F 26.2 °F 79% 29.73 in 10.0 mi South 8.1 mph - N/A   Overcast
2:15 AM 32.0 °F 24.8 °F 26.4 °F 80% 29.73 in 10.0 mi South 8.1 mph - N/A   Overcast
2:35 AM 32.0 °F 25.6 °F 26.2 °F 79% 29.74 in 10.0 mi SW 6.9 mph - N/A   Overcast
2:55 AM 32.0 °F 26.4 °F 26.4 °F 80% 29.75 in 7.0 mi SW 5.8 mph - N/A Snow Light Snow
3:15 AM 32.0 °F 24.8 °F 27.3 °F 83% 29.75 in 7.0 mi SSW 8.1 mph - N/A Snow Light Snow
3:35 AM 32.0 °F 24.8 °F 27.5 °F 83% 29.75 in 7.0 mi SSW 8.1 mph - N/A Snow Light Snow
3:55 AM 32.0 °F 25.6 °F 27.9 °F 85% 29.75 in 10.0 mi SW 6.9 mph - N/A   Overcast
4:15 AM 32.0 °F 24.8 °F 27.9 °F 85% 29.74 in 10.0 mi SSW 8.1 mph - N/A   Overcast
4:35 AM 32.0 °F 24.2 °F 27.5 °F 83% 29.75 in 10.0 mi SSW 9.2 mph - N/A   Mostly Cloudy
4:55 AM 32.0 °F 26.4 °F 27.5 °F 83% 29.75 in 10.0 mi SW 5.8 mph - N/A   Overcast
5:15 AM 32.0 °F 25.6 °F 27.5 °F 83% 29.76 in 10.0 mi SW 6.9 mph - N/A   Overcast
5:35 AM 32.0 °F 28.7 °F 27.5 °F 83% 29.77 in 10.0 mi SSW 3.5 mph - N/A   Overcast
5:55 AM 32.0 °F 27.5 °F 27.5 °F 83% 29.78 in 10.0 mi SW 4.6 mph - N/A   Overcast
6:15 AM 32.0 °F 27.5 °F 25.7 °F 78% 29.78 in 10.0 mi WSW 4.6 mph - N/A   Overcast
6:35 AM 32.0 °F 24.2 °F 25.3 °F 76% 29.78 in 10.0 mi WSW 9.2 mph - N/A   Overcast
6:55 AM 32.0 °F 25.6 °F 25.3 °F 76% 29.80 in 7.0 mi West 6.9 mph - N/A Snow Light Snow
7:15 AM 32.0 °F 26.4 °F 27.0 °F 82% 29.81 in 5.0 mi West 5.8 mph - N/A Snow Light Snow
7:35 AM 27.1 °F 17.5 °F 22.5 °F 83% 29.86 in 1.2 mi NW 10.4 mph 28.8 mph N/A Snow Light Snow
7:55 AM 26.6 °F 18.2 °F 19.9 °F 76% 29.89 in 10.0 mi WNW 8.1 mph - N/A   Overcast
8:15 AM 25.3 °F 16.7 °F 18.7 °F 76% 29.92 in 10.0 mi WNW 8.1 mph - N/A   Overcast
8:35 AM 24.6 °F 15.1 °F 16.9 °F 72% 29.93 in 10.0 mi NW 9.2 mph 21.9 mph N/A   Overcast
8:55 AM 22.1 °F 10.0 °F 10.4 °F 61% 29.95 in 10.0 mi NW 12.7 mph 19.6 mph N/A   Overcast
9:15 AM 21.2 °F 8.9 °F 9.5 °F 61% 29.97 in 10.0 mi WNW 12.7 mph 18.4 mph N/A   Overcast
9:35 AM 19.8 °F 7.1 °F 7.9 °F 60% 29.99 in 10.0 mi WNW 12.7 mph 19.6 mph N/A   Overcast
9:55 AM 17.4 °F 3.5 °F 2.5 °F 52% 30.03 in 10.0 mi NW 13.8 mph 20.7 mph N/A   Overcast
10:15 AM 16.3 °F 4.9 °F 1.9 °F 53% 30.07 in 10.0 mi NW 9.2 mph 21.9 mph N/A   Overcast
10:35 AM 15.1 °F 4.2 °F 3.0 °F 59% 30.08 in 10.0 mi WNW 8.1 mph - N/A   Overcast
10:55 AM 14.5 °F 2.7 °F 2.3 °F 58% 30.09 in 10.0 mi WNW 9.2 mph 18.4 mph N/A   Overcast
11:15 AM 12.7 °F 2.4 °F -0.6 °F 55% 30.11 in 10.0 mi NW 6.9 mph 16.1 mph N/A   Overcast
11:35 AM 12.0 °F 1.5 °F -0.6 °F 57% 30.13 in 10.0 mi NW 6.9 mph - N/A   Overcast
11:55 AM 13.1 °F 1.8 °F -1.1 °F 53% 30.14 in 10.0 mi NW 8.1 mph - N/A   Scattered Clouds
12:15 PM 14.0 °F 2.0 °F -2.0 °F 49% 30.14 in 10.0 mi NNW 9.2 mph - N/A   Clear
12:35 PM 12.0 °F 0.5 °F -4.5 °F 48% 30.13 in 10.0 mi NW 8.1 mph - N/A   Clear
12:55 PM 12.0 °F 0.5 °F -4.0 °F 49% 30.14 in 10.0 mi NW 8.1 mph - N/A   Clear
1:15 PM 12.0 °F 4.1 °F -5.8 °F 45% 30.15 in 10.0 mi NW 4.6 mph - N/A   Clear
1:35 PM 12.0 °F 1.5 °F -6.3 °F 44% 30.15 in 10.0 mi NW 6.9 mph - N/A   Clear
1:55 PM 11.3 °F -0.4 °F -7.1 °F 44% 30.16 in 10.0 mi NW 8.1 mph - N/A   Clear
2:15 PM 11.3 °F 0.7 °F -8.7 °F 40% 30.16 in 10.0 mi NW 6.9 mph 18.4 mph N/A   Clear
2:35 PM 10.9 °F -0.8 °F -8.9 °F 41% 30.17 in 10.0 mi North 8.1 mph - N/A   Clear
2:55 PM 9.5 °F -2.6 °F -8.7 °F 44% 30.16 in 10.0 mi North 8.1 mph - N/A   Clear
3:15 PM 9.5 °F -1.5 °F -8.3 °F 44% 30.17 in 10.0 mi North 6.9 mph - N/A   Clear
3:35 PM 9.3 °F -2.8 °F -6.9 °F 48% 30.16 in 10.0 mi North 8.1 mph - N/A   Clear
3:55 PM 8.6 °F -1.3 °F -7.6 °F 48% 30.17 in 10.0 mi NNW 5.8 mph - N/A   Clear
4:15 PM 7.0 °F -4.5 °F -7.8 °F 51% 30.17 in 10.0 mi NNW 6.9 mph - N/A   Clear
4:35 PM 6.8 °F -3.5 °F -6.9 °F 54% 30.18 in 10.0 mi NNW 5.8 mph - N/A   Clear
4:55 PM 6.8 °F -2.0 °F -6.7 °F 54% 30.17 in 10.0 mi North 4.6 mph - N/A   Clear
5:15 PM 6.8 °F -2.0 °F -8.1 °F 51% 30.17 in 10.0 mi NW 4.6 mph - N/A   Clear
5:35 PM 6.8 °F -0.1 °F -8.3 °F 50% 30.18 in 10.0 mi NNW 3.5 mph - N/A   Clear
5:55 PM 6.6 °F - -7.8 °F 52% 30.19 in 10.0 mi Calm Calm - N/A   Clear
6:15 PM 6.8 °F - -7.6 °F 52% 30.20 in 10.0 mi Calm Calm - N/A   Clear
6:35 PM 6.8 °F - -7.8 °F 51% 30.21 in 10.0 mi Calm Calm - N/A   Clear
6:55 PM 6.8 °F -0.1 °F -8.0 °F 51% 30.21 in 10.0 mi WNW 3.5 mph - N/A   Clear
7:15 PM 6.8 °F -5.9 °F -8.5 °F 50% 30.21 in 10.0 mi NW 8.1 mph - N/A   Clear
7:35 PM 6.8 °F -3.5 °F -9.4 °F 48% 30.21 in 10.0 mi WNW 5.8 mph - N/A   Clear
7:55 PM 6.8 °F -2.0 °F -9.4 °F 48% 30.21 in 10.0 mi NW 4.6 mph - N/A   Clear
8:15 PM 5.5 °F - -11.0 °F 47% 30.22 in 10.0 mi Calm Calm - N/A   Clear
8:35 PM 4.5 °F - -12.6 °F 45% 30.23 in 10.0 mi Calm Calm - N/A   Clear
8:55 PM 4.5 °F -2.7 °F -11.6 °F 48% 30.22 in 10.0 mi NW 3.5 mph - N/A   Clear
9:15 PM 4.5 °F -2.7 °F -10.3 °F 51% 30.22 in 10.0 mi NNW 3.5 mph - N/A   Clear
9:35 PM 4.5 °F -4.7 °F -9.8 °F 52% 30.23 in 10.0 mi NW 4.6 mph - N/A   Clear
9:55 PM 4.5 °F -2.7 °F -9.6 °F 52% 30.21 in 10.0 mi NNW 3.5 mph - N/A   Clear
10:15 PM 4.5 °F -6.3 °F -9.8 °F 52% 30.21 in 10.0 mi NNW 5.8 mph - N/A   Clear
10:35 PM 3.6 °F -8.7 °F -11.6 °F 50% 30.21 in 10.0 mi NNW 6.9 mph - N/A   Clear
10:55 PM 2.5 °F -5.0 °F -14.1 °F 46% 30.21 in 10.0 mi NW 3.5 mph - N/A   Clear